Showing default

KSM1-B, 46914

Orbit data source: Space-Track

KSM1-B, 46914 is a payload satellite owned by Kleos Space (LU) in LEO that was launched on Sat, 07 Nov 2020 UTC via a PSLV-DL launch vehicle from the Sirharikota (SRI). Payloads include a variety of satellites, spacecraft, and rockets equipped with specific instruments for various scientific and technological missions. These include communications satellites like Starlink; space stations such as the ISS; scientific satellites like the Hubble; Earth observation satellites from companies like Planet Labs, Umbra, and HawkEye 360; GPS; miniature CubeSats for education and research; and military/defense satellites.

Loading next visibility...
KSM1-B details
Identifier
46914, 2020-081K
Orbit
LEO
Last TLE update18 hours ago
Origin
Flag of LUKleos Space (LU / LUXE)
ManufacturerGOMSpace
MissionOperational Commercial Sigint
Bus & MotorCUBESAT 6U, Unknown motor
Mass~10 kg wet, ~10 kg dry
Launch date (UTC)
2020-11-07 (4 years ago)
Launch vehicle
PSLV-DL
Launch site
Sirharikota (SRI)
Object type
Payload
Rocket body
Debris
Shape & HBRBox, Unknown HBR
Radar Cross Section0.080 m², Small (<0.1 m²)

Expand to show TLE details & history

TLE from 18 hours ago
0 KSM1-B
1 46914U 20081K   24360.65321524  .00015407  00000-0  84097-3 0  9996
2 46914  36.9009 116.0066 0008682  92.4329 267.7410 15.13668885226464
Epoch: 2024-12-25T15:40Z
Definitive object data (Epoch: 2024-12-25T15:40:37.796Z)
Latitude-0.00004°
Longitude146.20519°
Altitude524.376 km
Speed7.603 km/s
True Right ascension07h 44m 01s
True Declination0° 00' 00"
Sunlit
Object was in full shadow at TLE epoch
Visualization TLE readout
Latitude-10.44351°
Longitude-24.27305°
Altitude526.897 km
Speed7.601 km/s
Apparent Right ascension20h 45m 45s
Apparent Declination-24° 36' 34"
Sunlit
Object is in daylight
Visualization observer readout
Local Sidereal Time09:18:36
Azimuth26.716° NE
Elevation-73.212°
Doppler factor1
Orbital elements
Apogee altitude533.953 km
Perigee altitude521.962 km
Semi-major axis6,906.095 km
Eccentricity0.0008682
Inclination36.9009°
RAAN116.0066°
Arg. of periapsis92.4329°
True anomaly267.64159°
Mean anomaly267.741°
Eccentric anomaly267.6913°
Mean motion3.78176 °/min
BSTAR0.00084097
Orbital period95.19 mins
Loading maneuver chart data...
Loading historical data...
Loading historical data...
Loading historical data...
Loading historical data...
Loading historical data...
Loading historical data...
Loading historical data...

KSM1-B Visibility forecast

Observer location: undefined°, undefined

Span
Click to sort rows by Start time (UTC) header in descending order
Start Az.
Max El. time (UTC)
Max El. Az.
Max El.
End time (UTC)
End Az.
6 mins2024-12-26 12:32:30.319Z226.63° WSW2024-12-26 12:34:30.319Z180.633° SSW32.444°2024-12-26 12:38:30.319Z96.681° ESE
6 mins2024-12-26 14:12:30.319Z253.31° W2024-12-26 14:14:30.319Z209.921° SW37.876°2024-12-26 14:18:30.319Z105.946° ESE
6 mins2024-12-26 15:52:30.319Z252.644° W2024-12-26 15:54:30.319Z213.14° SW27.131°2024-12-26 15:58:30.319Z134.71° SE
|